Location: Rounton
(54.4000°N, 1.3500°W)
Time: 13:39:04
(UTC+00:00)

Transit 2A Rocket - Pass Details

Date: 09 December 2021
Orbit: 584 x 918 km, 66.7° (Epoch: 21 January)

Event Time Altitude Azimuth Distance (km) Brightness Sun altitude
Rises 13:07:19 0° 314° (NW) 3,563 8.2 11.3°
Reaches altitude 10° 13:09:59 10° 320° (NW) 2,623 7.5 11.2°
Maximum altitude 13:15:53 46° 33° (NNE) 1,208 5.8 10.9°
Drops below altitude 10° 13:21:36 10° 106° (ESE) 2,531 7.7 10.7°
Sets 13:24:07 0° 113° (ESE) 3,427 8.4 10.5°
